Location: Unspecified
(56.5167°N, 0.0000°E)
Time: 00:56:53
(UTC+01:00)

ISS - Visible Passes

Search period start: 25 March 2017 00:00
Search period end: 04 April 2017 01:00
Orbit: 399 x 409 km, 51.6° (Epoch: 25 March)

Date Brightness Start Highest point End Pass type
(mag) Time Alt. Az. Time Alt. Az. Time Alt. Az.
29 Mar -1.8 21:43:02 10° S 21:44:37 13° SSE 21:44:52 13° SE visible
29 Mar -1.0 23:17:29 10° SW 23:17:33 10° SW 23:17:33 10° SW visible
30 Mar -2.5 22:25:23 10° SW 22:27:43 24° S 22:27:43 24° S visible
31 Mar -2.2 21:33:26 10° SSW 21:35:51 19° SSE 21:37:43 13° ESE visible
31 Mar -2.1 23:08:45 10° WSW 23:10:22 23° SW 23:10:22 23° SW visible
01 Apr -2.9 22:16:30 10° SW 22:19:25 31° S 22:20:13 27° SE visible
01 Apr -1.1 23:52:28 10° WSW 23:52:52 12° WSW 23:52:52 12° WSW visible
02 Apr -2.6 21:24:19 10° SW 21:27:05 26° SSE 21:29:53 10° ESE visible
02 Apr -2.8 23:00:04 10° WSW 23:02:35 32° SSW 23:02:35 32° SSW visible
03 Apr -3.0 22:07:42 10° WSW 22:10:43 34° S 22:12:14 22° SE visible
03 Apr -1.4 23:43:55 10° WSW 23:44:53 16° WSW 23:44:53 16° WSW visible
